Date String (YYYY-MM-DD hh:mm:ss) UTC,Instrument flags,absolute air pressure of the measurement (hPa),sample flow rate (lpm),inlet stack bypass flow (lpm),air temperature of the measurement (°C),ambient temperature measured by the external sensor (°C),aerosol sample conditioner tube jacket temperature (°C),OPC LED temperature (°C),internal box temperature (°C),relative humidity of the measurement (%),span deviation,mass concentration of particles derived from Lorenz-Mie calculation of OPC scattering (μg/m³),mass concentration of particles derived from Lorenz-Mie calculation of OPC scattering (μg/m³),mass concentration of particles derived from Lorenz-Mie calculation of OPC scattering (μg/m³)
DateTimeUTC,F1_M11,P_M11,Q1_M11,Q2_M11,T1_M11,T2_M11,T3_M11,T4_M11,T5_M11,U1_M11,ZSPAN_M11,X0_M11,X2_M11,X1_M11
2024-03-13 01:00:00,SystemResetWarning,0822.2,5.01,000.00,023.6,022.9,000.0,032.1,025.4,11.0,0000.0,0015.86,0004.56,0002.93
2024-03-13 01:01:00,SystemResetWarning,0822.2,4.99,000.00,023.6,022.9,000.0,032.1,025.4,11.0,0000.0,0016.01,0004.56,0002.92
2024-03-13 01:02:00,SystemResetWarning,0822.2,5.00,000.00,023.6,022.9,000.0,032.1,025.4,11.2,0000.0,0016.95,0004.53,0002.91
2024-03-13 01:03:00,SystemResetWarning,0822.2,5.00,000.00,023.6,022.9,000.0,032.1,025.4,11.3,0000.0,0017.53,0004.51,0002.89
2024-03-13 01:04:00,SystemResetWarning,0822.1,5.00,000.00,023.6,022.9,000.0,032.1,025.4,11.9,0000.0,0018.79,0004.53,0002.87
2024-03-13 01:05:00,SystemResetWarning,0822.1,5.00,000.00,023.6,022.9,000.0,032.1,025.4,12.1,0000.0,0018.95,0004.52,0002.87
2024-03-13 01:06:00,SystemResetWarning,0822.1,5.01,000.00,023.6,022.9,000.0,032.1,025.4,12.1,0000.0,0019.00,0004.48,0002.83
2024-03-13 01:07:00,SystemResetWarning,0822.1,5.00,000.00,023.6,022.9,000.0,032.1,025.5,12.0,0000.0,0020.22,0004.49,0002.80
2024-03-13 01:08:00,SystemResetWarning,0822.1,5.01,000.00,023.6,022.9,000.0,032.1,025.5,12.1,0000.0,0021.11,0004.57,0002.80
2024-03-13 01:09:00,SystemResetWarning,0822.1,5.00,000.00,023.6,022.9,000.0,032.1,025.5,12.4,0000.0,0020.05,0004.52,0002.78
2024-03-13 01:10:00,SystemResetWarning,0822.3,5.00,000.00,023.6,022.9,000.0,032.1,025.5,12.4,0000.0,0020.79,0004.55,0002.77
2024-03-13 01:11:00,SystemResetWarning,0822.2,4.99,000.00,023.6,022.9,000.0,032.1,025.5,12.5,0000.0,0020.34,0004.59,0002.80
2024-03-13 01:12:00,SystemResetWarning,0822.1,4.99,000.00,023.6,022.9,000.0,032.1,025.5,12.6,0000.0,0020.10,0004.53,0002.81
2024-03-13 01:13:00,SystemResetWarning,0822.2,5.00,000.00,023.6,022.9,000.0,032.1,025.4,12.7,0000.0,0019.54,0004.48,0002.81
2024-03-13 01:14:00,SystemResetWarning,0822.2,4.99,000.00,023.6,022.9,000.0,032.1,025.4,12.7,0000.0,0018.69,0004.50,0002.81
2024-03-13 01:15:00,SystemResetWarning,0822.2,5.01,000.00,023.6,022.9,000.0,032.1,025.4,12.9,0000.0,0017.12,0004.47,0002.82
2024-03-13 01:16:00,SystemResetWarning,0822.2,5.01,000.00,023.6,022.9,000.0,032.1,025.5,12.8,0000.0,0016.62,0004.47,0002.80
2024-03-13 01:17:00,SystemResetWarning,0822.2,5.00,000.00,023.6,022.9,000.0,032.1,025.4,13.0,0000.0,0016.81,0004.47,0002.79
2024-03-13 01:18:00,SystemResetWarning,0822.2,5.00,000.00,023.6,022.9,000.0,032.1,025.5,13.0,0000.0,0016.90,0004.44,0002.80
2024-03-13 01:19:00,SystemResetWarning,0822.3,5.00,000.00,023.6,022.9,000.0,032.1,025.5,12.8,0000.0,0015.82,0004.40,0002.77
2024-03-13 01:20:00,SystemResetWarning,0822.3,5.00,000.00,023.6,022.9,000.0,032.1,025.5,12.9,0000.0,0015.56,0004.40,0002.74
2024-03-13 01:21:00,SystemResetWarning,0822.3,5.00,000.00,023.6,022.9,000.0,032.1,025.4,13.0,0000.0,0014.93,0004.33,0002.67
2024-03-13 01:22:00,SystemResetWarning,0822.4,5.00,000.00,023.6,022.8,000.0,032.1,025.4,13.1,0000.0,0013.72,0004.15,0002.54
2024-03-13 01:23:00,SystemResetWarning,0822.4,5.01,000.00,023.6,022.8,000.0,032.1,025.4,13.2,0000.0,0014.56,0004.05,0002.41
2024-03-13 01:24:00,SystemResetWarning,0822.4,5.00,000.00,023.6,022.8,000.0,032.1,025.4,13.1,0000.0,0013.63,0003.95,0002.28
2024-03-13 01:25:00,SystemResetWarning,0822.3,5.00,000.00,023.6,022.8,000.0,032.1,025.4,13.3,0000.0,0013.59,0003.86,0002.18
2024-03-13 01:26:00,SystemResetWarning,0822.4,5.00,000.00,023.6,022.8,000.0,032.1,025.4,13.4,0000.0,0013.62,0003.79,0002.07
2024-03-13 01:27:00,SystemResetWarning,0822.3,5.00,000.00,023.6,022.8,000.0,032.1,025.4,13.5,0000.0,0013.45,0003.69,0001.97
2024-03-13 01:28:00,SystemResetWarning,0822.3,4.99,000.00,023.6,022.8,000.0,032.1,025.4,13.6,0000.0,0013.19,0003.56,0001.89
2024-03-13 01:29:00,SystemResetWarning,0822.4,4.99,000.00,023.5,022.8,000.0,032.1,025.4,13.6,0000.0,0012.17,0003.45,0001.76
2024-03-13 01:30:00,SystemResetWarning,0822.3,5.00,000.00,023.5,022.8,000.0,032.1,025.4,13.6,0000.0,0011.62,0003.34,0001.66
2024-03-13 01:31:00,SystemResetWarning,0822.4,5.02,000.00,023.5,022.8,000.0,032.1,025.4,13.7,0000.0,0011.26,0003.25,0001.58
2024-03-13 01:32:00,SystemResetWarning,0822.4,4.99,000.00,023.5,022.8,000.0,032.1,025.3,13.8,0000.0,0010.85,0003.16,0001.50
2024-03-13 01:33:00,SystemResetWarning,0822.5,5.00,000.00,023.5,022.8,000.0,032.1,025.4,13.9,0000.0,0010.58,0003.10,0001.48
2024-03-13 01:34:00,SystemResetWarning,0822.4,5.00,000.00,023.5,022.8,000.0,032.1,025.4,14.0,0000.0,0009.67,0003.06,0001.47
2024-03-13 01:35:00,SystemResetWarning,0822.4,5.00,000.00,023.5,022.8,000.0,032.1,025.4,14.1,0000.0,0010.14,0003.00,0001.45
2024-03-13 01:36:00,SystemResetWarning,0822.4,5.00,000.00,023.5,022.8,000.0,032.1,025.3,14.2,0000.0,0010.24,0003.00,0001.43
2024-03-13 01:37:00,SystemResetWarning,0822.4,5.00,000.00,023.5,022.7,000.0,032.0,025.3,14.2,0000.0,0010.01,0003.01,0001.44
2024-03-13 01:38:00,SystemResetWarning,0822.4,5.01,000.00,023.5,022.7,000.0,032.0,025.3,14.1,0000.0,0009.97,0002.98,0001.42
2024-03-13 01:39:00,SystemResetWarning,0822.4,5.01,000.00,023.5,022.7,000.0,032.0,025.3,14.1,0000.0,0011.21,0002.99,0001.40
2024-03-13 01:40:00,SystemResetWarning,0822.4,5.00,000.00,023.5,022.7,000.0,032.0,025.3,13.9,0000.0,0010.91,0002.96,0001.39
2024-03-13 01:41:00,SystemResetWarning,0822.4,5.01,000.00,023.5,022.7,000.0,032.0,025.3,14.0,0000.0,0010.81,0002.98,0001.39
2024-03-13 01:42:00,SystemResetWarning,0822.4,5.00,000.00,023.5,022.7,000.0,032.0,025.3,14.0,0000.0,0010.71,0003.00,0001.39
2024-03-13 01:43:00,SystemResetWarning,0822.4,4.99,000.00,023.5,022.6,000.0,032.0,025.2,13.9,0000.0,0010.08,0002.92,0001.36
2024-03-13 01:44:00,SystemResetWarning,0822.4,5.00,000.00,023.5,022.6,000.0,032.0,025.2,13.9,0000.0,0010.19,0002.96,0001.36
2024-03-13 01:45:00,SystemResetWarning,0822.4,4.99,000.00,023.5,022.6,000.0,032.0,025.2,14.3,0000.0,0010.30,0002.98,0001.35
2024-03-13 01:46:00,SystemResetWarning,0822.4,5.00,000.00,023.4,022.6,000.0,032.0,025.3,14.2,0000.0,0009.94,0003.03,0001.35
2024-03-13 01:47:00,SystemResetWarning,0822.4,5.00,000.00,023.4,022.6,000.0,032.0,025.2,14.4,0000.0,0009.89,0003.01,0001.34
2024-03-13 01:48:00,SystemResetWarning,0822.4,5.00,000.00,023.4,022.6,000.0,032.0,025.2,14.9,0000.0,0010.00,0003.01,0001.33
2024-03-13 01:49:00,SystemResetWarning,0822.4,5.01,000.00,023.4,022.6,000.0,032.0,025.2,15.1,0000.0,0010.01,0003.01,0001.34
2024-03-13 01:50:00,SystemResetWarning,0822.4,5.00,000.00,023.4,022.6,000.0,032.0,025.2,15.1,0000.0,0008.77,0002.97,0001.33
2024-03-13 01:51:00,SystemResetWarning,0822.4,4.99,000.00,023.4,022.6,000.0,032.0,025.2,15.3,0000.0,0007.99,0002.93,0001.31
2024-03-13 01:52:00,SystemResetWarning,0822.4,5.00,000.00,023.4,022.6,000.0,032.0,025.2,15.2,0000.0,0008.05,0002.90,0001.32
2024-03-13 01:53:00,SystemResetWarning,0822.4,5.00,000.00,023.4,022.6,000.0,032.0,025.2,15.3,0000.0,0008.20,0002.94,0001.31
2024-03-13 01:54:00,SystemResetWarning,0822.4,5.00,000.00,023.4,022.6,000.0,032.0,025.2,15.1,0000.0,0008.15,0002.93,0001.32
2024-03-13 01:55:00,SystemResetWarning,0822.4,5.00,000.00,023.4,022.6,000.0,032.0,025.2,14.9,0000.0,0008.06,0002.88,0001.32
2024-03-13 01:56:00,SystemResetWarning,0822.4,5.00,000.00,023.4,022.6,000.0,032.0,025.2,14.8,0000.0,0007.99,0002.83,0001.32
2024-03-13 01:57:00,SystemResetWarning,0822.4,5.00,000.00,023.4,022.6,000.0,031.9,025.2,14.9,0000.0,0007.90,0002.84,0001.32
2024-03-13 01:58:00,SystemResetWarning,0822.4,5.00,000.00,023.4,022.6,000.0,031.9,025.2,14.8,0000.0,0007.46,0002.83,0001.33
2024-03-13 01:59:00,SystemResetWarning,0822.4,5.00,000.00,023.4,022.6,000.0,031.9,025.2,14.6,0000.0,0007.41,0002.91,0001.34
